Preview of NWS' New Version of Forecast
This preview is not operational and should not be used for support decisions.
Latest weather observations around

Frenchville, Northern Aroostook Regional Airport (KFVE)

Using English Units (Switch to International System of Units)
Date/ Time (EDT) Wind (mph) Vis. (mi) Weather Sky Cond. Temp (°F) Rel. Humidity Wind Chill (°F) Heat Index (°F) Pressure Precip. (in)
Air Dwpt 6 hour Altimeter (inHg) Sea level (inHg) 1 hr 3 hr 6 hr
Max Min
May 26 23:53 NNE 6 10 Clear CLR 49 26     41% 46   30.13 30.13      
May 26 22:53 NE 8 10 Clear CLR 49 26     41% 45   30.11 30.11      
May 26 21:53 NNE 9 10 Clear CLR 50 25     37%     30.09 30.09      
May 26 20:53 NNE 7 10 Clear CLR 52 25     35%     30.06 30.06      
May 26 19:53 NNE 7 10 Clear CLR 56 24     29%     30.03 30.02      
May 26 18:53 NNE 13 10 Clear CLR 58 24     27%     29.99 29.99      
May 26 17:53 N 13 10 Clear CLR 61 26     26%     29.95 29.95      
May 26 16:53 N 16 10 Clear CLR 62 27     26%     29.91 29.91      
May 26 15:53 N 17 10 Clear CLR 63 29     28%     29.88 29.88      
May 26 14:53 N 18 10 Clear CLR 63 30     29%     29.86 29.85      
May 26 13:53 N 15 10 Clear CLR 63 30     29%     29.83 29.82      
May 26 12:53 N 17 10 Clear CLR 63 32     31%     29.8 29.79      
May 26 11:53 NW 17 10 Clear CLR 61 34     36%     29.78 29.77      
May 26 10:53 NW 17 10 Clear CLR 61 34     36%     29.76 29.75      
May 26 09:53 N 14 10 Clear CLR 61 37     41%     29.74 29.73      
May 26 08:53 N 10 10 Clear CLR 58 42     55%     29.72 29.71      
May 26 07:53 NNW 13 10 Clear CLR 56 43     62%     29.69 29.67      
May 26 06:53 NNW 8 10 Clear CLR 54 43     66%     29.66 29.65      
May 26 05:53 NNW 8 10 Cloudy OVC095 52 42     69%     29.63 29.62      
May 26 04:53 NNW 10 10 Clear CLR 52 42     69%     29.62 29.6      
May 26 03:53 N 8 10 Clear CLR 55 43     64%     29.59 29.57      
May 26 02:53 N 7 10 Cloudy OVC100 57 43     59%     29.57 29.56      
May 26 01:53 NNW 6 10 Cloudy BKN080 OVC110 58 45     62%     29.57 29.55      
May 26 00:53 N 6 10 Cloudy OVC085 59 46     62%     29.56 29.55      
Notice The following observation data may not be complete
May 25 23:53 Calm 10 Mostly Cloudy BKN080   46      %     29.56 29.55      
Notice The following observation data may not be complete
May 25 22:53 Calm 10 Mostly Cloudy SCT080 BKN095 BKN120   45      %     29.56 29.55      
May 25 21:53 Calm 10 Cloudy BKN075 BKN090 OVC110 67 44     44%     29.56 29.55      
May 25 20:53 WSW 6 10 Cloudy BKN080 OVC100 67 44     44%     29.56 29.55      
May 25 19:53 WNW 6 10 Mostly Cloudy SCT060 BKN095 BKN120 68 44     42%     29.55 29.54     0
May 25 18:53 WSW 6 10 Mostly Cloudy BKN060 68 46     45%     29.54 29.53 0    
May 25 17:53   10 Mostly Cloudy BKN100 72 44     37%   71 29.51 29.5      
May 25 16:53   10 Mostly Cloudy BKN100 74 48     40%   73 29.5 29.49      
May 25 15:53 NW 9 10 Cloudy BKN090 OVC110 73 49     43%   72 29.51 29.5      
May 25 14:53 WNW 13 10 Mostly Cloudy BKN090 BKN110 73 52     48%   72 29.53 29.52      
May 25 13:53 W 9 10 Clear CLR 73 52     48%   72 29.54 29.53     0
May 25 12:53 WSW 6 10 Clear CLR 65 52     63%     29.56 29.56      
May 25 11:53 W 7 10 Mostly Clear FEW120 61 51     70%     29.58 29.58 0    
May 25 10:53 SSW 5 10 Light Rain FEW060 FEW090 BKN110 55 49     80%     29.59 29.59 0 0  
May 25 09:53 SSW 6 10 Light Rain FEW005 SCT041 BKN070 51 47     86%     29.59 29.59 0    
May 25 08:53 SSW 9 10 Light Rain FEW038 FEW070 OVC085 50 46     86% 46   29.61 29.61 0    
May 25 08:38 SSW 10 8 Light Rain SCT039 SCT065 OVC085 49 45     86% 45   29.6   0    
May 25 08:30 SSW 8 2 Light Rain and Fog/Mist FEW003 BKN034 OVC075 49 45     86% 45   29.62   0    
May 25 08:25 SSW 9 1.5 Rain and Fog/Mist FEW003 BKN034 OVC080 48 45     89% 44   29.63   0    
May 25 08:14 SSW 8 2 Rain and Fog/Mist FEW004 BKN032 OVC080 48 45     89% 44   29.64   0    
May 25 08:09 SW 7 1.5 Heavy Rain and Fog/Mist FEW004 BKN034 OVC070 48 45     89% 45   29.65   0    
May 25 08:01 SW 7 2.5 Rain and Fog/Mist FEW005 BKN043 OVC070 48 45     89% 45   29.65   0    
May 25 07:53 SSW 11 3 Rain and Fog/Mist FEW003 BKN046 OVC070 48 45     89% 43   29.64 29.65 0   0
May 25 07:16 SSW 10 4 Rain and Fog/Mist FEW002 BKN055 OVC075 48 45     89% 43   29.63   0    
May 25 07:03 SSW 13 4 Light Rain and Fog/Mist SCT002 BKN020 OVC060 48 45     89% 43   29.64   0    
May 25 06:53 SSW 13 7 Light Rain SCT002 BKN040 OVC060 48 45     89% 43   29.63 29.63 0    
May 25 06:30 S 11 7 Light Rain FEW003 BKN060 OVC070 48 45     89% 43   29.65   0    
May 25 05:53 SSW 11 5 Rain and Fog/Mist BKN060 OVC070 48 44     86% 43   29.66 29.67 0    
May 25 04:53 SSW 11 10 Light Rain OVC080 48 43     83% 43   29.66 29.65 0 0  
May 25 03:53 S 9 10 Light Rain OVC065 48 44     86% 44   29.68 29.67 0    
May 25 02:53 SSW 14 10 Light Rain BKN080 OVC095 48 43     83% 42   29.68   0    
May 25 01:53 S 9 10 Light Rain BKN060 OVC090 48 43     83% 44   29.74 29.74 0   0
May 25 00:53 S 6 10 Cloudy BKN060 OVC080 47 43     86% 44   29.79 29.78 0    
May 24 23:53 S 7 9 Light Rain FEW047 OVC060 48 41     77% 45   29.81 29.81 0    
May 24 22:53 SSW 8 10 Light Rain SCT050 OVC060 50 37     61% 47   29.84 29.84 0 0  
May 24 21:53 SSW 3 10 Light Rain OVC055 55 31     40%     29.86 29.86 0    
May 24 20:53 Calm 10 Cloudy OVC060 56 29     35%     29.88 29.88 0    
May 24 19:53 W 8 10 Cloudy OVC060 57 28     33%     29.89 29.89      
May 24 18:53 W 10 10 Cloudy OVC070 57 25     29%     29.9 29.9      
May 24 17:53 W 10 10 Cloudy OVC070 58 22     25%     29.9 29.91      
May 24 16:53 W 15 10 Cloudy OVC100 61 18     19%     29.91 29.91      
May 24 15:53 WNW 7 10 Cloudy OVC110 63 23     22%     29.92 29.92      
May 24 14:53 W 11 10 Clear CLR 63 26     24%     29.94 29.94      
May 24 13:53 WSW 9 10 Clear CLR 61 29     30%     29.96 29.96      
May 24 12:53 WSW 5 10 Mostly Clear FEW065 60 29     31%     29.99 30      
May 24 11:53 5 10 Clear CLR 57 28     33%     30.02 30.02      
May 24 10:53 W 5 10 Mostly Clear FEW050 54 31     41%     30.04 30.04      
May 24 09:53 S 10 10 Clear CLR 52 33     48%     30.05 30.06      
May 24 08:53 SSE 5 10 Clear CLR 48 33     56% 46   30.06 30.07      
May 24 07:53 SSE 7 10 Clear CLR 45 32     60% 41   30.06 30.07      
May 24 06:53 Calm 10 Mostly Clear FEW055 43 30     60%     30.05 30.06      
May 24 05:53 ESE 5 10 Clear CLR 38 30     73% 34   30.02 30.04      
May 24 04:53 Calm 10 Mostly Clear FEW070 40 26     57%     30.01 30.02      
May 24 03:53 W 3 10 Cloudy BKN050 OVC070 38 29     70% 36   30 30.02      
May 24 02:53 W 5 10 Mostly Cloudy FEW050 BKN075 35 29     78% 31   29.99 30.01      
May 24 01:53 E 6 10 Mostly Cloudy BKN070 41 26     55% 37   29.98 29.99      
May 24 00:53 E 5 10 Clear CLR 40 28     62% 37   29.98 29.99      
Notice The following observation data may not be complete
May 23 23:53 NNW 6 10 Clear CLR   28      %     29.98 29.99      
Notice The following observation data may not be complete
May 23 22:53 N 5 10 Clear CLR   27      %     29.98 29.99      
May 23 21:53 NNW 5 10 Clear CLR 45 28     51% 43   29.98 29.99      
May 23 20:53 NNW 7 10 Clear CLR 45 28     51% 41   29.98 29.98      
May 23 19:53 NW 7 10 Clear CLR 46 30     53% 42   29.97 29.97     0
Notice The following observation data may not be complete
May 15 07:53 SSW 6 10 Clear CLR   41      %     29.69 29.68      
May 15 04:53 SSE 9 10 Partly Cloudy SCT110 51 38     61%     29.69 29.68      
Notice The following observation data may not be complete
May 14 23:53 Calm 10 Clear CLR   35      %     29.77 29.75      
May 14 16:53 W 18 10 Partly Cloudy SCT120 78 37     23%   77 29.66 29.65      
May 14 13:53 WSW 16 10 Mostly Clear FEW085 76 36     23%   74 29.68 29.67      
May 14 12:53 SW 20 10 Clear and Windy CLR 76 37     24%   74 29.69 29.68      
May 12 12:53 WSW 11 10 Clear CLR 54 17     23%     30.04 30.06      
May 12 09:53 W 10 10 Clear CLR 45 18     34% 40   30.12 30.14      
May 12 08:53 WSW 10 10 Clear CLR 42 18     37% 36   30.12 30.14      
May 12 07:53 W 8 10 Clear CLR 38 19     46% 32   30.13 30.15      
May 11 18:53 NW 20 10 Clear and Windy CLR 42 14     32% 33   29.98 29.99      
May 11 15:53 NW 22 10 Clear and Windy CLR 45 17     32% 37   29.91 29.92      
May 11 13:53   10 Clear CLR 45 17     32%     29.88 29.89 0   0
Jun 10 18:53 WSW 7 10 Clear CLR 68 31     25%     29.82 29.81      
Jun 10 09:53   10 Clear CLR 56 37     49%     29.87 29.86